GFSSE_prec_cthk_096.txt.gz
RH
35 36 35 36 38 37 34 32 38 44 45 49 52 50 49 49 49 48 47 53 52 48 48 38 34 35 43 44 47 52 42 38 32 28 33 31 28 29 29 27 25 26 30
34 34 32 32 30 33 35 34 36 41 47 51 53 57 55 54 52 50 47 44 42 38 32 33 35 34 42 37 36 38 39 28 27 29 32 34 35 34 31 34 35 36 35
27 25 25 23 23 23 30 42 46 47 47 57 58 56 60 60 59 57 52 45 36 33 27 28 34 37 35 33 33 35 29 31 31 30 29 36 37 40 35 35 31 29 33
22 18 16 16 18 23 30 39 49 54 50 55 57 59 56 55 54 55 55 50 40 32 29 27 33 36 36 35 34 34 30 30 33 29 29 34 38 39 36 35 33 32 29
23 19 14 15 18 21 27 38 43 50 57 55 57 62 65 65 64 61 60 53 46 37 34 36 37 33 36 33 33 28 32 28 30 31 32 36 38 37 37 35 32 25 24
25 21 16 16 18 22 25 32 40 47 48 55 59 67 78 80 80 78 76 72 57 46 45 41 34 32 32 33 30 27 29 32 30 31 33 36 37 41 38 34 25 22 22
25 22 16 16 19 24 27 30 36 41 46 52 57 70 72 79 85 85 89 91 86 57 55 44 36 32 29 30 29 32 32 38 39 37 40 37 36 33 32 26 20 19 20
28 23 19 17 20 23 27 30 34 39 39 47 53 62 72 78 85 77 84 94 92 73 53 46 41 33 31 32 30 33 41 39 42 34 34 36 34 30 29 22 20 20 19
27 20 20 18 19 24 30 35 40 43 41 40 45 51 55 63 70 72 78 97 94 75 57 44 45 40 38 42 42 40 38 37 36 35 34 34 30 30 27 25 22 20 18
24 21 16 17 23 27 33 39 41 42 46 46 46 49 51 56 64 65 77 86 97 76 59 46 50 47 45 45 51 49 52 47 42 35 28 30 32 33 29 27 26 21 21
26 25 19 21 27 31 35 40 38 36 43 44 46 48 55 62 65 68 83 94 93 81 58 48 55 60 54 52 51 48 44 36 40 32 27 33 34 34 31 27 27 24 23
29 25 23 26 28 31 36 36 33 36 40 42 47 55 70 79 78 86 96 97 95 90 68 58 61 56 57 51 48 44 42 42 45 30 27 35 36 36 31 32 30 29 25
28 25 29 31 30 32 36 37 31 37 41 48 56 63 85 86 89 93 96 97 96 92 67 60 60 61 56 51 45 55 42 44 42 29 32 37 38 36 31 29 29 29 27
28 26 30 33 33 35 34 38 33 38 44 55 59 80 92 92 94 97 99 99 95 90 64 63 64 60 65 59 60 43 42 43 40 36 32 33 35 38 33 32 31 31 28
27 28 32 33 34 36 34 34 36 37 46 60 64 90 95 95 93 95 97 99 90 86 57 55 53 54 59 54 47 45 43 44 44 41 35 36 37 35 34 36 35 33 30
30 31 34 35 37 38 32 29 33 42 47 59 68 86 95 95 93 90 98 93 89 79 57 50 50 48 53 50 47 47 48 49 47 53 37 37 37 37 39 40 38 35 33
33 36 35 35 39 39 33 29 33 43 50 56 69 80 96 96 96 96 98 95 91 68 52 49 45 54 56 50 49 50 52 53 51 48 40 39 40 42 43 44 41 39 38
38 40 35 36 40 38 33 28 33 42 46 54 67 77 91 95 97 98 95 94 79 60 54 51 48 53 57 53 53 54 56 58 59 52 45 43 45 46 47 46 43 42 42
38 43 33 36 37 35 29 28 34 42 48 57 64 70 81 91 97 97 93 92 83 71 55 49 51 56 61 58 56 56 57 57 61 57 50 46 48 50 50 47 45 43 42
40 44 35 37 36 31 27 31 38 48 58 62 67 72 73 89 95 98 94 91 82 67 58 56 62 64 62 63 61 62 64 66 61 58 54 49 56 52 46 44 42 44 49
42 37 33 36 34 28 27 32 45 60 67 69 71 77 80 86 88 96 95 94 82 75 66 61 63 64 66 68 67 69 72 70 65 63 66 70 58 47 41 39 45 50 49
41 41 39 35 32 26 25 36 50 61 62 68 71 72 73 92 86 88 92 94 86 81 72 67 65 72 71 73 71 72 75 74 78 76 74 63 55 47 46 52 53 55 62
39 41 41 34 31 25 24 36 50 61 67 68 69 69 71 78 84 88 95 93 88 86 83 77 78 75 78 79 74 78 80 80 83 76 67 59 56 56 58 60 61 65 68
39 43 42 37 29 23 23 35 46 54 62 67 65 65 70 76 83 88 98 98 93 91 90 87 81 79 79 76 83 81 80 82 78 73 64 61 61 60 67 71 72 74 79
44 44 43 38 28 21 22 32 42 53 66 70 69 71 78 85 89 89 97 97 92 92 91 89 84 83 81 84 84 84 86 78 73 75 75 75 77 80 79 77 76 74 69
47 45 44 37 27 21 22 31 45 58 76 79 80 82 87 89 89 93 97 98 95 90 93 94 87 85 87 86 84 87 82 82 88 89 86 83 78 76 73 72 71 70 67

GFSSE_prec_cthk_102.txt.gz
RH
24 25 27 29 31 32 33 34 33 33 36 40 44 47 59 51 50 48 48 46 47 44 45 41 41 38 46 57 62 58 57 55 45 39 39 39 36 35 29 29 33 30 32
25 26 27 26 25 26 27 30 31 34 37 43 50 53 53 47 52 47 48 45 50 51 48 44 45 41 39 47 59 60 57 51 49 42 39 35 32 30 27 27 25 26 30
24 22 22 23 23 24 26 30 33 35 38 42 45 44 46 53 50 53 49 51 49 53 48 43 42 41 43 48 55 57 56 47 42 40 38 30 28 26 26 25 24 28 33
22 22 23 23 25 24 24 26 32 37 40 43 45 47 50 50 58 55 55 59 53 43 45 39 38 35 36 51 59 50 45 36 34 35 36 31 30 28 29 34 36 31 33
22 23 23 24 26 25 22 26 31 38 41 44 51 57 53 55 57 59 66 68 66 56 45 45 43 43 42 49 55 41 36 31 33 34 32 32 32 30 29 27 29 31 37
25 24 24 25 21 21 21 22 27 32 40 46 47 48 58 57 60 60 68 67 80 74 64 51 45 45 43 45 43 38 35 35 37 32 34 34 31 29 28 27 27 32 36
26 26 24 22 19 18 22 24 26 28 32 36 41 46 51 53 66 64 69 88 75 82 76 69 58 50 50 45 40 40 36 35 36 30 30 31 30 30 28 33 38 37 27
26 25 24 22 23 20 20 24 27 28 31 36 37 41 48 55 61 67 69 72 77 78 79 77 68 56 61 49 41 40 38 37 31 32 30 32 32 33 39 37 24 20 18
29 27 25 24 24 23 19 22 27 30 33 38 43 47 50 55 57 62 65 64 69 77 76 77 80 79 69 54 39 40 37 34 33 34 31 34 38 40 41 28 23 21 20
30 29 27 27 27 23 23 26 28 32 37 41 45 48 46 51 56 57 59 64 71 75 74 78 87 83 70 54 38 39 37 35 33 36 40 43 46 50 32 26 26 21 23
30 30 30 29 28 25 24 28 32 33 38 44 44 45 45 48 50 49 54 60 63 63 71 79 86 86 77 52 42 40 33 29 33 40 41 45 49 45 23 24 25 26 25
30 31 32 31 28 27 27 29 34 35 38 44 46 46 45 48 46 50 58 62 60 69 78 86 80 87 72 53 50 40 35 33 34 37 45 50 49 34 31 31 27 30 29
30 32 32 31 30 30 32 32 32 35 36 40 44 46 46 50 51 53 60 63 68 77 88 92 86 84 69 53 53 48 40 41 43 46 50 49 32 32 34 32 28 34 33
31 33 34 32 31 32 36 36 34 34 33 35 39 44 46 42 51 58 64 71 86 86 94 96 89 85 68 51 54 53 50 49 48 46 46 59 35 36 34 29 31 34 31
32 33 35 33 33 33 38 39 36 33 34 32 31 39 45 51 52 63 77 90 92 93 96 97 94 90 69 58 58 52 52 51 43 45 52 51 36 37 34 36 34 35 35
32 34 37 35 33 35 39 40 36 36 36 32 30 35 44 50 57 71 84 95 96 97 98 96 94 87 74 65 67 73 66 60 52 46 51 45 36 39 39 40 39 35 35
30 35 38 36 37 39 42 42 36 39 35 31 28 35 46 52 58 75 89 97 95 99 96 93 89 88 69 78 73 66 65 62 58 53 53 48 39 42 42 40 39 37 37
32 35 38 39 38 43 43 42 38 39 35 30 29 34 44 50 59 73 89 98 96 94 94 91 89 92 85 73 65 64 68 66 67 47 36 38 41 47 47 46 42 42 43
34 34 36 38 39 42 41 41 39 40 32 28 30 36 40 50 58 70 87 99 99 98 96 93 94 95 87 73 68 71 71 73 63 40 34 35 40 48 50 48 46 47 48
34 34 36 38 38 41 45 42 39 39 31 28 32 37 46 59 67 70 80 95 99 99 98 95 95 97 90 73 69 73 73 64 60 44 39 41 46 55 57 54 55 52 52
34 34 36 37 38 42 45 43 40 37 31 29 33 41 53 66 70 83 77 95 98 97 98 96 96 95 89 76 71 77 74 66 60 49 42 42 46 56 66 61 57 60 63
36 35 37 37 38 40 46 45 42 36 30 28 36 44 56 67 74 79 81 93 97 98 95 93 94 94 80 76 76 73 75 70 63 56 47 50 54 64 67 62 67 69 56
34 36 38 37 39 42 46 47 45 36 26 26 34 44 52 68 78 80 85 93 94 93 92 92 92 90 80 78 79 70 74 71 71 64 56 60 62 63 65 69 70 55 56
36 39 39 42 41 44 46 48 45 33 21 23 34 43 54 69 83 86 90 98 99 96 95 91 82 84 79 73 80 75 69 67 72 71 69 65 68 70 73 74 61 54 59
35 41 41 45 47 47 47 50 46 31 20 25 36 50 65 68 74 88 88 93 96 95 91 79 77 78 82 73 73 76 73 74 74 69 68 74 77 72 75 65 55 60 68
34 42 46 46 48 51 52 52 45 26 21 30 41 55 70 69 74 78 95 84 92 97 90 79 83 80 75 74 78 79 82 83 79 74 80 81 79 74 64 59 70 74 73

GFSSE_prec_cthk_105.txt.gz
RH
20 21 23 24 25 24 24 26 28 28 31 35 42 49 46 56 53 46 46 44 43 45 46 41 40 41 44 53 58 62 60 56 49 48 48 44 38 38 39 36 38 33 36
19 22 24 23 21 20 22 26 27 29 34 38 46 49 60 52 52 51 46 45 44 46 50 46 44 43 40 48 57 62 63 58 51 45 46 48 39 34 33 31 32 30 30
22 21 21 22 22 22 24 26 29 30 35 38 41 50 49 58 49 49 50 50 50 51 54 54 47 44 45 43 51 59 60 59 48 46 43 39 34 31 28 27 27 27 34
21 20 20 21 23 24 26 27 29 29 33 40 46 45 47 49 57 52 60 55 58 59 48 48 52 44 41 47 53 60 57 55 43 39 42 35 31 29 25 25 26 31 34
21 21 22 22 21 21 23 26 27 31 34 39 40 42 45 63 52 55 57 64 65 72 60 47 45 50 48 48 54 67 58 44 33 36 34 36 32 28 31 31 34 33 34
23 23 22 21 19 19 20 22 25 28 34 38 42 43 45 48 55 68 59 62 65 74 72 64 49 45 48 50 51 61 48 36 33 36 33 38 33 30 29 26 28 31 35
24 25 23 21 21 21 21 22 23 26 30 34 36 41 46 50 52 57 72 78 73 77 84 73 70 60 50 50 49 49 39 38 40 38 38 37 34 30 27 27 29 35 38
25 25 24 24 22 22 24 22 23 26 29 33 35 40 41 46 53 56 59 63 79 66 81 72 74 73 55 48 48 38 38 40 40 37 36 33 32 30 30 33 36 41 37
26 26 26 26 24 25 24 25 26 28 31 36 40 45 47 51 65 68 62 62 64 67 70 79 72 75 71 63 53 36 40 40 38 36 33 33 34 33 36 34 31 28 21
27 29 29 28 26 26 25 26 27 28 30 34 40 42 44 50 52 57 65 67 68 62 66 75 74 78 74 81 78 52 39 39 36 34 36 38 36 38 36 40 33 30 23
28 29 31 31 29 27 26 26 28 31 31 32 37 41 45 45 45 46 50 57 56 57 65 73 70 83 86 89 88 68 40 36 33 34 39 43 42 45 43 37 31 20 21
28 29 31 32 32 30 28 28 30 34 38 36 35 40 42 45 46 46 46 48 51 60 69 73 77 89 94 94 95 60 40 36 34 34 41 44 46 48 48 38 27 24 25
29 29 31 34 35 33 30 30 32 37 39 38 37 41 43 45 51 43 45 49 52 58 77 79 86 95 94 93 85 53 41 31 32 36 41 47 51 48 46 35 30 28 28
29 30 31 34 36 35 34 32 34 34 38 39 40 42 41 42 49 52 50 58 62 80 74 85 89 94 94 92 78 50 42 36 34 37 42 47 46 45 36 32 32 31 31
31 31 32 34 37 36 36 35 36 36 36 37 38 39 44 39 45 55 51 61 69 80 89 91 92 95 90 88 60 55 47 42 41 47 46 47 46 49 42 36 36 34 32
30 32 34 36 39 38 38 38 40 43 38 39 36 36 37 39 45 47 54 63 76 88 96 92 96 95 93 87 64 58 57 53 46 48 52 52 52 55 50 37 37 37 34
31 32 34 36 39 39 40 44 44 45 40 38 34 31 31 33 44 45 54 64 82 93 98 97 96 98 96 86 69 64 56 52 45 45 51 51 50 57 41 38 40 40 41
31 33 33 34 38 38 40 45 45 43 40 40 35 30 31 38 43 51 53 65 82 92 94 98 99 98 97 86 77 71 64 60 59 55 54 51 60 52 40 40 42 44 43
31 32 32 34 38 39 41 45 44 44 40 40 34 29 31 40 47 51 61 69 78 95 97 97 99 97 94 82 82 70 71 80 68 58 58 54 62 52 41 43 46 45 42
32 30 30 33 37 40 43 45 47 46 42 40 32 28 31 38 46 56 68 78 86 94 96 94 93 95 91 87 81 79 78 70 67 63 53 57 47 48 47 48 51 47 45
31 30 29 31 37 40 42 45 47 46 44 42 32 27 30 40 49 58 71 76 82 87 95 98 97 92 98 95 87 80 71 72 72 64 52 50 43 42 44 48 58 58 60
30 31 29 31 35 39 43 47 46 47 46 44 33 27 32 42 49 61 75 82 88 85 99 98 97 97 97 95 81 75 75 78 75 65 54 49 46 47 49 59 67 67 66
29 30 29 32 36 40 43 47 48 50 48 45 33 27 30 40 50 61 76 87 82 89 95 98 98 97 94 92 88 79 79 79 77 66 52 50 46 45 51 61 63 64 67
27 29 28 33 37 42 44 47 49 50 49 44 27 27 32 42 54 64 76 84 92 87 94 98 98 97 93 94 97 90 77 69 72 67 55 50 49 51 61 67 67 71 71
24 26 29 34 39 44 47 48 50 53 52 44 25 25 34 49 60 71 75 84 98 97 97 95 95 97 93 93 90 84 78 77 74 64 68 68 62 59 62 66 69 74 72
24 27 31 36 43 48 48 49 52 55 52 40 24 27 39 53 63 72 77 86 91 95 93 94 96 97 96 93 88 81 82 78 77 70 72 70 64 67 69 68 73 76 65

GFSSE_prec_cthk_108.txt.gz
RH
19 17 16 17 19 20 21 22 25 28 27 29 34 39 47 49 57 53 49 44 44 43 44 45 42 44 47 49 51 54 58 60 62 59 55 56 51 42 41 42 46 39 39
17 17 19 21 20 19 19 22 25 27 30 32 36 44 53 57 55 47 52 48 46 45 48 45 43 44 44 45 52 57 63 60 55 51 49 58 50 39 42 39 39 34 38
18 19 21 19 19 18 20 23 26 28 31 35 41 43 51 55 58 49 48 49 53 52 52 52 47 45 45 46 51 57 59 60 55 51 52 58 55 40 37 33 33 29 33
21 20 20 19 18 18 20 22 26 27 30 36 39 47 52 47 54 52 52 56 56 55 62 55 47 49 50 43 48 55 60 60 56 49 51 50 43 35 32 30 31 27 33
20 20 21 19 18 17 19 22 25 30 32 35 39 46 47 47 54 58 59 58 55 64 74 66 59 53 52 51 50 58 63 57 54 45 49 40 39 35 32 30 30 31 37
21 21 21 19 19 19 19 21 23 26 30 33 38 42 44 46 53 53 58 68 68 70 76 72 70 60 51 52 52 54 65 59 45 49 46 37 41 38 34 40 39 35 35
22 22 21 20 20 20 20 22 23 25 26 28 32 36 41 45 52 54 56 56 67 73 70 72 74 68 61 51 52 51 54 50 49 49 43 42 36 33 33 33 31 34 38
23 23 23 22 22 22 23 23 25 27 29 30 32 34 39 45 52 63 69 57 62 63 66 72 73 75 74 71 50 48 40 42 45 46 45 46 36 31 33 29 33 34 39
23 23 24 24 24 25 25 26 25 28 30 32 34 37 42 55 58 60 62 67 63 79 66 79 69 85 77 72 55 49 42 36 49 53 49 39 37 32 31 33 38 40 36
24 24 26 27 27 27 27 27 29 29 31 32 34 37 46 45 53 56 54 56 61 68 68 74 78 82 85 78 71 68 53 42 47 50 47 41 35 35 35 38 31 34 33
26 25 27 28 29 30 29 29 28 30 33 35 37 37 44 52 50 53 57 52 57 63 65 61 66 67 75 87 85 88 79 52 48 46 47 39 36 38 39 37 32 28 32
27 28 29 29 31 32 32 35 31 30 32 37 38 40 41 47 53 53 52 50 52 54 52 56 66 84 82 87 94 95 90 67 50 47 38 38 39 41 41 38 33 34 33
32 34 32 31 31 33 36 40 37 33 37 37 38 41 43 46 48 51 52 50 49 48 49 55 69 75 78 90 96 96 96 77 54 51 37 39 46 45 41 40 37 34 28
32 34 34 33 32 34 41 39 41 34 39 37 37 36 41 41 42 43 50 51 51 54 56 63 65 88 83 93 97 94 93 62 53 51 40 39 45 47 41 41 45 39 33
31 33 36 32 34 34 36 39 42 41 39 39 39 37 39 41 44 48 44 50 53 54 66 72 92 82 87 97 97 91 81 59 52 51 43 39 51 49 38 38 37 37 35
29 33 35 32 36 37 36 36 37 41 46 43 39 39 38 37 40 51 50 47 58 56 66 73 88 95 93 95 96 90 82 57 50 48 46 40 49 48 43 40 44 36 36
30 33 33 33 34 36 37 36 37 43 44 43 41 40 38 34 31 47 51 53 54 53 66 85 94 96 95 99 93 88 80 55 54 49 45 47 51 52 48 48 44 42 37
30 31 32 32 31 34 37 38 38 43 45 43 42 39 37 30 30 35 44 48 49 62 67 91 96 99 97 97 98 86 74 66 57 48 49 58 59 58 50 55 46 45 38
31 32 31 33 30 34 40 40 39 42 46 45 43 40 36 28 29 31 36 44 57 65 75 90 96 96 99 97 98 90 74 77 60 55 55 57 61 58 51 52 55 41 40
32 31 31 32 32 34 41 41 40 42 46 48 46 42 39 28 27 33 40 50 59 74 77 97 97 98 99 97 96 94 84 75 65 54 55 58 59 60 51 57 51 40 38
33 31 30 30 31 35 37 39 40 42 45 49 49 46 42 29 26 31 43 52 63 74 83 95 95 98 99 98 92 94 90 82 72 66 63 61 63 65 60 61 57 47 41
33 34 31 31 33 34 36 39 42 44 47 51 51 49 43 28 26 31 43 54 67 77 98 84 94 95 97 94 95 97 94 86 80 76 77 63 62 63 63 58 54 49 56
29 30 31 33 35 36 38 40 45 45 50 51 53 50 45 27 28 33 47 57 68 80 88 91 94 98 94 95 96 97 90 84 83 79 70 64 62 62 60 54 50 57 67
25 25 26 31 33 37 39 41 44 42 47 52 54 50 45 27 28 37 51 61 71 85 98 87 99 99 95 96 95 97 90 80 74 72 72 66 63 62 58 55 56 64 66
22 24 26 29 32 38 41 44 45 49 53 57 59 53 41 29 30 38 51 59 73 85 93 94 97 98 98 97 95 98 94 83 70 71 76 71 63 58 56 55 60 61 63
24 24 26 29 32 37 40 47 48 54 54 57 59 51 33 29 33 43 54 64 73 83 95 95 96 95 98 98 95 98 90 87 79 76 78 70 62 58 58 60 62 66 69

GFSSE_prec_cthk_114.txt.gz
RH
28 21 15 14 14 15 16 18 20 23 26 28 29 31 31 38 44 43 40 38 36 36 36 38 41 45 49 52 59 61 62 64 65 66 69 72 68 62 56 50 51 49 51
24 17 15 15 15 17 17 17 19 21 25 27 29 30 34 41 43 46 43 38 36 39 41 39 41 40 42 46 47 52 55 57 55 56 57 59 57 57 54 53 47 52 44
19 16 16 16 15 14 15 16 18 21 24 25 27 31 41 41 46 44 39 39 41 43 44 44 44 40 40 41 48 49 54 57 56 55 57 55 53 56 53 51 48 47 42
18 15 16 14 13 13 14 17 20 22 24 27 29 33 37 44 45 45 40 44 44 49 49 51 51 49 49 46 44 52 53 56 55 60 65 60 56 58 58 51 42 41 39
16 16 15 13 12 13 15 18 21 23 25 29 33 34 41 42 42 46 41 45 45 51 51 57 62 63 60 57 49 49 55 54 56 58 62 61 57 57 52 40 39 48 45
17 16 15 14 13 13 15 18 21 23 25 29 33 36 40 40 41 40 41 51 47 50 61 62 72 83 73 65 57 54 56 56 56 68 68 57 60 46 51 46 40 39 46
21 17 16 16 15 14 15 18 20 23 25 27 31 34 36 40 43 43 43 48 47 56 59 66 78 69 69 73 65 59 60 56 59 70 74 51 64 45 43 46 48 43 48
19 18 17 17 16 16 16 18 20 22 25 27 30 33 38 43 55 55 54 54 56 61 66 62 60 60 68 69 67 62 59 58 61 87 86 47 48 48 51 43 49 45 41
21 19 18 18 18 18 18 19 20 21 23 26 28 31 36 45 53 60 64 61 71 69 67 74 69 67 77 75 80 76 71 65 60 69 59 50 49 54 49 40 32 33 37
22 20 20 19 20 20 20 21 21 21 23 25 28 30 34 38 45 51 56 62 65 66 66 56 59 68 78 87 83 82 82 68 56 96 53 48 49 53 45 30 28 30 33
24 21 20 20 21 22 22 23 22 23 24 25 27 30 33 35 39 43 47 49 52 62 68 57 64 75 72 77 76 77 80 70 68 70 48 52 53 57 41 31 32 29 33
26 26 23 21 21 23 24 24 25 24 25 26 27 30 33 35 37 43 48 53 53 54 53 53 57 63 69 62 69 70 76 83 80 88 82 58 62 46 40 34 33 31 32
30 29 29 26 26 26 26 25 26 26 26 27 28 30 33 36 37 43 50 55 57 64 64 61 55 53 52 53 57 62 74 79 88 94 94 73 56 49 43 37 35 34 29
35 32 32 28 28 28 31 31 31 30 29 27 28 30 37 39 38 39 42 48 51 53 54 60 53 52 55 57 64 63 74 77 81 88 90 84 56 47 44 37 33 33 27
41 38 36 31 28 29 31 34 36 35 33 31 34 36 41 42 41 40 40 45 48 50 53 48 50 57 61 64 71 70 74 80 90 90 96 84 76 47 43 39 37 32 28
38 42 42 38 35 31 32 34 36 37 36 37 38 40 43 44 44 40 40 39 43 52 60 61 57 59 62 65 69 75 79 85 94 91 96 87 66 45 43 40 36 32 31
30 34 43 39 40 35 31 34 37 40 36 36 34 38 46 46 46 41 37 36 35 49 64 66 64 66 63 69 73 75 89 95 94 95 98 88 64 48 43 38 37 37 35
28 30 35 42 41 36 32 35 37 39 41 38 37 36 41 48 47 45 39 33 33 37 51 53 58 61 60 62 70 87 95 94 93 94 97 83 66 51 45 43 43 39 34
31 35 36 42 39 37 36 37 37 37 39 40 39 37 40 45 49 48 44 36 28 30 40 48 49 55 62 61 69 90 97 95 95 97 93 77 64 44 43 43 47 44 35
34 36 39 41 42 39 38 38 39 39 41 41 41 39 39 42 46 48 46 42 31 30 31 39 45 53 61 62 81 92 98 98 98 94 90 64 65 48 44 40 45 41 37
39 36 37 42 45 44 42 41 40 41 40 42 42 42 40 40 47 48 49 46 35 26 25 32 42 52 61 71 92 94 97 99 98 95 87 83 63 49 44 41 40 42 45
39 37 37 40 41 42 43 40 41 41 44 43 42 42 40 43 45 50 51 49 43 27 25 30 43 52 65 77 95 96 97 99 98 95 92 88 64 51 48 46 45 46 45
40 39 40 40 40 43 42 42 44 43 44 43 43 44 48 48 46 51 54 53 47 31 27 31 43 55 64 84 95 96 98 96 96 95 94 90 78 65 60 56 51 48 47
41 39 41 41 40 40 41 40 40 37 37 37 40 42 45 51 47 50 56 55 49 34 28 33 44 54 64 84 95 97 97 95 95 98 95 93 85 75 64 61 53 52 59
45 43 45 36 33 32 35 36 36 34 34 37 39 41 47 49 49 50 57 58 52 33 28 34 46 54 64 81 93 91 97 97 95 95 95 94 94 90 76 60 57 59 62
46 47 42 34 32 33 31 35 35 31 31 37 40 42 45 50 50 49 58 62 55 32 30 39 51 62 69 80 95 95 96 93 96 95 94 93 97 95 84 74 66 64 62

GFSSE_prec_cthk_117.txt.gz
RH
32 23 18 16 14 14 16 18 20 22 24 25 26 30 31 40 40 34 33 32 33 33 33 36 39 44 48 52 60 64 65 70 75 77 76 79 72 70 64 61 56 49 52
29 20 19 14 14 14 16 18 19 20 22 24 25 28 30 39 42 38 37 34 33 34 34 37 37 39 42 44 47 52 54 57 60 61 64 64 65 64 56 55 50 47 49
20 19 19 14 14 14 14 15 17 20 23 23 25 26 31 39 42 43 39 36 37 38 36 39 40 38 37 37 41 46 51 53 56 56 57 57 56 58 55 53 50 46 47
21 21 16 14 13 12 13 15 17 21 23 24 25 28 35 40 44 44 38 41 42 44 43 42 40 40 42 43 41 43 46 51 53 54 56 58 55 57 57 53 50 46 44
20 19 14 13 12 12 13 15 18 21 23 24 27 30 35 40 44 45 40 43 45 46 47 47 46 50 51 54 52 49 46 48 54 55 56 60 60 60 66 61 50 43 43
17 15 14 13 12 13 14 16 18 21 23 26 28 31 35 37 39 43 43 44 51 48 50 58 64 67 71 64 53 57 53 50 56 61 70 58 60 62 57 53 53 51 53
15 15 15 14 13 13 14 16 18 20 22 25 28 30 35 38 42 43 46 45 50 54 59 65 63 66 65 63 57 60 59 60 59 66 79 71 64 64 51 50 56 47 47
15 15 15 15 14 14 14 16 18 20 21 24 27 30 33 38 42 48 47 53 56 57 64 64 62 59 60 56 60 66 64 58 65 72 86 83 62 53 50 50 51 48 47
16 16 16 16 16 15 15 16 17 19 21 22 25 27 32 37 42 47 52 55 61 68 76 70 70 63 60 60 64 70 68 64 62 66 75 85 70 52 53 53 51 47 38
17 18 17 17 17 16 16 16 17 19 21 22 23 25 28 31 36 39 43 51 56 67 68 63 65 55 58 60 74 80 80 81 85 71 82 78 70 57 54 55 39 28 30
20 20 19 18 18 18 18 18 17 18 20 22 23 25 26 29 32 35 37 42 47 53 62 65 64 54 65 66 70 71 71 74 83 71 82 84 78 54 61 53 34 28 29
20 21 20 19 19 19 20 20 20 20 21 22 24 25 27 28 31 33 36 40 46 51 52 53 54 52 56 60 65 60 63 65 82 77 76 83 75 63 64 54 37 32 33
23 20 19 20 20 20 20 21 22 22 22 23 24 26 28 30 32 32 34 37 41 46 52 58 61 58 52 50 51 51 54 55 72 86 88 89 88 67 59 46 39 37 34
28 22 21 21 21 21 21 22 23 24 24 25 24 26 27 31 34 33 33 34 36 41 44 49 52 60 50 48 52 57 61 58 64 74 80 85 89 78 59 45 41 39 37
34 29 28 22 22 23 24 24 25 26 26 27 27 27 28 32 36 37 37 35 34 37 42 49 52 51 51 57 60 61 69 69 69 76 75 82 89 93 66 55 44 36 39
40 38 36 35 33 30 25 25 26 27 31 31 32 30 30 32 37 40 42 39 36 33 36 49 59 59 58 58 59 62 71 79 79 80 82 92 97 98 78 60 43 45 39
34 40 42 41 40 39 35 33 28 27 31 33 34 34 33 34 38 40 44 44 39 34 32 40 54 59 60 62 60 58 62 71 77 87 89 93 93 95 81 55 46 39 36
30 32 37 42 39 39 40 37 35 29 32 34 36 36 35 35 38 42 45 47 46 38 31 30 40 47 54 57 61 58 63 73 90 96 95 94 94 91 73 50 46 34 35
27 29 32 39 40 38 39 42 39 34 33 36 39 39 39 38 38 40 45 49 51 47 35 29 34 39 42 49 59 62 66 73 94 98 96 96 96 86 67 56 42 38 47
31 30 33 32 35 37 40 43 41 40 38 38 38 40 41 42 41 41 45 50 53 53 44 29 31 36 40 43 52 59 68 76 95 94 96 96 93 84 65 63 43 45 45
34 33 32 32 35 41 44 46 47 40 37 41 44 42 40 43 45 45 46 50 53 56 51 37 29 33 36 44 55 62 72 87 93 95 98 98 92 85 72 53 43 45 46
37 36 36 37 43 47 47 45 46 44 38 39 44 45 43 43 46 46 48 49 53 58 59 47 30 29 33 42 52 62 75 94 92 97 97 95 94 83 68 52 44 43 42
42 42 42 40 42 44 43 43 42 45 43 41 43 44 44 45 48 48 45 48 53 58 61 54 39 30 34 39 50 61 83 90 95 98 95 94 93 83 72 57 46 43 40
46 44 44 43 43 45 48 49 39 37 38 38 40 43 46 46 47 48 47 48 53 57 62 59 46 32 38 41 54 60 76 93 94 99 97 97 95 89 86 68 51 49 50
52 51 50 45 44 43 44 46 46 40 37 38 40 43 48 51 47 50 51 49 53 57 64 64 50 32 36 44 56 61 72 93 96 96 96 98 98 97 93 79 66 61 53
53 52 50 48 44 43 39 40 43 43 43 39 39 39 43 45 46 49 51 53 54 59 64 65 49 34 39 55 69 76 78 92 94 95 97 97 96 97 94 86 81 72 63

GFSSE_prec_cthk_123.txt.gz
RH
21 26 27 28 23 18 17 18 19 21 22 23 25 26 27 27 26 26 27 27 29 30 31 34 37 41 47 51 55 61 70 77 78 81 82 80 78 77 75 74 71 67 66
22 25 25 26 22 19 17 17 18 21 23 24 25 26 28 28 26 25 28 30 29 30 30 33 35 38 41 44 46 51 56 65 69 82 76 79 75 78 78 72 68 61 58
22 22 22 23 21 19 16 17 18 21 22 23 24 26 29 29 27 26 29 31 30 30 30 33 33 34 35 36 39 42 45 51 56 62 67 77 70 70 70 67 63 58 56
21 20 20 21 20 19 16 16 17 19 20 22 24 25 29 28 30 29 31 33 33 34 35 35 34 35 37 38 38 40 45 48 49 50 54 59 63 64 64 60 56 58 55
19 18 19 21 19 18 15 14 15 17 20 22 24 26 29 30 32 32 34 36 36 38 40 41 42 42 43 46 48 50 55 53 50 51 54 59 62 60 59 60 59 57 58
18 19 20 19 16 15 15 14 15 17 20 22 24 26 28 32 34 34 36 38 40 43 44 45 48 51 54 59 59 59 57 56 55 56 57 54 61 63 62 63 61 60 60
20 19 18 16 14 15 15 15 16 17 19 21 24 26 29 35 37 36 37 38 41 43 47 47 54 61 67 64 59 57 58 56 54 62 64 62 66 68 64 62 58 60 63
18 16 15 15 15 15 16 16 17 17 19 22 24 27 30 35 35 37 36 38 41 41 46 47 54 57 60 61 61 57 59 59 61 67 67 69 76 80 69 66 57 60 64
18 16 15 15 16 16 16 17 18 19 20 21 25 28 30 34 35 35 36 37 39 41 47 51 56 64 66 65 60 54 60 65 67 69 70 70 72 78 77 64 63 62 62
18 18 17 15 15 17 17 18 19 19 21 22 24 27 29 32 33 35 38 40 41 44 47 53 59 57 62 62 53 56 63 76 77 78 78 73 64 66 74 69 58 61 65
19 18 18 17 15 16 17 18 20 20 21 23 25 26 27 28 29 32 37 40 40 42 44 47 53 57 60 59 55 64 70 74 69 62 66 74 77 74 74 79 64 60 55
21 20 18 18 17 16 17 18 19 20 21 22 24 25 25 27 28 30 33 36 39 40 42 45 49 52 54 54 54 60 63 65 59 53 56 69 72 85 86 78 64 52 42
22 22 21 20 18 17 17 18 19 19 20 22 23 24 25 26 27 29 31 33 36 39 39 41 45 48 55 56 57 55 53 56 54 53 54 59 68 81 88 83 61 55 44
25 25 22 21 21 19 18 18 20 19 20 21 22 24 25 26 27 28 30 32 33 36 38 38 41 45 50 56 57 56 53 52 58 60 63 60 68 85 93 94 85 63 50
27 26 25 24 24 22 20 18 21 21 22 23 23 24 26 27 27 30 32 33 34 36 38 36 36 39 47 55 57 56 56 55 58 60 64 66 71 73 89 92 89 81 56
31 30 29 27 25 24 24 20 21 22 23 25 25 26 28 28 29 30 33 35 36 38 38 39 34 34 42 53 57 57 55 58 60 58 61 66 73 78 80 92 92 89 72
34 31 30 30 30 28 26 23 23 24 25 25 26 27 29 30 31 32 34 35 36 39 42 43 41 35 35 45 50 51 54 53 55 57 60 62 71 76 86 90 92 95 82
35 32 35 36 37 37 32 28 29 31 29 28 28 29 29 31 32 34 36 37 38 41 44 45 46 42 33 36 41 42 45 46 47 54 62 62 70 72 89 92 94 96 90
38 40 39 39 39 44 46 45 41 41 37 37 35 32 33 34 35 36 37 39 42 43 46 46 48 49 45 36 36 38 40 41 43 54 58 61 68 83 93 97 94 97 94
42 44 43 42 40 43 48 52 52 50 49 47 46 43 44 39 39 40 40 42 44 45 49 49 50 51 52 49 41 38 40 41 43 50 57 61 75 83 96 99 96 93 93
40 37 40 37 34 36 40 46 50 51 56 56 51 49 51 50 45 43 44 47 47 49 50 51 53 55 57 58 56 48 44 42 48 48 52 61 78 83 97 97 98 93 85
42 38 36 36 35 33 34 39 45 54 55 51 58 58 55 54 53 48 47 51 51 52 54 52 54 57 60 63 64 57 46 40 49 46 48 68 82 91 94 95 96 92 87
46 42 38 36 38 38 38 38 44 53 60 64 69 70 67 66 60 54 51 53 53 53 55 56 58 59 62 64 68 66 57 45 40 41 50 57 79 92 94 94 97 93 83
47 44 43 41 40 42 44 47 46 52 62 65 80 73 72 65 59 57 55 54 56 57 57 56 57 59 61 65 68 71 65 48 41 47 56 64 72 95 97 98 95 94 89
51 48 49 48 48 50 53 60 57 58 80 91 79 69 60 57 57 57 58 57 53 57 60 60 60 61 60 65 68 72 69 58 44 57 64 72 77 83 94 98 97 93 88
57 61 59 58 59 60 63 65 69 75 81 84 76 71 69 63 60 58 59 57 52 59 61 62 61 61 62 65 67 72 68 59 45 66 72 81 79 85 94 99 96 90 87

GFSSE_prec_cthk_126.txt.gz
RH
20 23 27 29 28 25 20 18 18 18 19 21 22 24 25 26 27 28 25 26 27 29 32 35 39 44 47 50 53 58 64 68 69 72 76 83 78 79 76 72 73 69 69
21 26 26 26 26 24 20 19 18 18 20 22 23 25 25 25 25 25 25 26 26 28 31 33 35 40 43 44 48 53 57 61 63 71 78 86 83 83 83 77 74 71 68
24 26 27 25 23 23 20 19 18 19 20 23 24 25 24 25 24 24 26 27 27 29 31 33 35 36 37 37 39 42 44 49 53 59 68 79 81 78 71 65 69 67 64
25 25 26 24 22 21 20 19 19 20 21 22 24 26 25 26 24 25 27 29 30 31 33 35 35 37 36 36 39 42 43 44 50 54 53 56 60 61 60 62 63 63 62
25 23 23 21 20 19 18 18 19 20 21 22 23 26 27 27 25 26 29 31 32 33 35 37 39 40 43 45 48 50 51 56 53 51 51 53 55 58 58 59 60 64 64
23 23 23 20 19 18 16 16 18 18 20 22 23 26 29 28 28 28 31 34 35 35 37 37 41 44 46 53 58 57 57 57 55 52 51 55 58 60 61 61 61 60 65
20 21 21 19 18 17 15 15 17 19 20 22 23 25 29 30 31 32 33 35 37 38 39 40 43 46 53 59 56 58 56 53 54 55 59 62 62 68 70 64 62 62 65
20 20 20 18 16 15 15 15 17 19 21 23 24 25 28 30 35 35 35 36 37 39 39 43 47 50 51 55 55 55 55 54 54 59 64 65 66 82 78 67 65 64 65
21 21 20 18 16 15 17 17 17 20 21 22 24 27 29 34 37 37 36 37 37 38 39 43 45 48 54 54 56 48 53 59 62 65 70 72 72 74 76 76 69 65 65
21 21 19 19 19 16 16 18 19 20 21 23 25 27 30 33 35 35 33 35 38 40 43 45 48 52 53 55 53 50 55 65 74 71 72 74 76 76 74 68 66 66 63
21 20 21 20 20 19 18 17 20 22 23 25 27 28 30 32 34 34 33 34 35 39 42 45 49 51 49 49 51 49 61 65 65 63 58 58 64 74 82 80 73 73 63
21 21 22 22 21 21 20 18 19 22 24 26 27 28 28 29 30 31 32 33 33 36 40 43 47 49 48 48 50 51 54 59 59 54 50 53 59 61 84 91 83 80 63
23 22 23 24 23 23 21 21 20 21 22 24 26 27 28 29 30 31 32 31 31 33 35 38 43 45 47 47 51 53 54 53 56 53 51 55 59 61 78 93 86 73 62
27 24 23 25 25 24 23 23 21 21 22 22 24 26 27 28 28 29 31 31 31 32 33 34 38 42 44 46 52 55 54 54 53 54 55 58 60 72 78 90 88 80 65
30 27 25 26 27 24 25 25 23 21 22 22 23 25 26 27 28 30 32 32 33 33 34 35 36 38 41 43 50 54 54 54 53 56 56 57 60 68 78 82 89 91 89
34 32 30 30 29 28 26 26 25 23 23 23 23 24 25 26 28 30 33 34 36 36 37 38 39 38 38 41 46 50 52 52 51 53 54 54 59 72 82 84 89 93 91
39 37 37 35 33 29 29 26 27 27 25 25 26 27 28 28 30 32 34 36 37 38 39 41 43 44 39 38 41 45 46 47 47 48 49 52 58 63 74 79 84 95 95
46 43 40 38 36 32 31 29 29 29 27 27 29 29 30 32 33 34 36 38 40 41 42 44 46 47 46 43 38 41 43 40 42 43 44 49 57 58 66 69 77 94 98
51 53 47 44 37 37 36 36 32 29 28 32 35 34 33 34 35 35 36 39 42 44 44 46 49 51 51 50 46 41 41 38 38 39 41 47 54 57 62 70 88 91 96
52 58 55 44 41 46 45 47 48 42 39 39 40 40 41 37 39 39 39 41 43 45 46 49 51 53 54 55 55 50 49 45 40 40 44 44 50 56 64 78 90 95 97
50 55 56 44 44 50 50 49 54 52 48 44 45 47 50 49 50 50 45 46 46 47 49 50 53 54 57 57 61 57 54 52 46 39 42 45 46 53 74 84 83 96 96
40 39 46 47 49 52 52 49 48 56 58 56 55 57 59 56 55 56 56 52 49 49 51 53 53 57 58 59 61 62 59 59 54 45 39 40 46 50 75 85 87 94 93
47 42 45 50 48 50 50 48 46 49 53 57 59 60 60 61 64 64 58 60 59 54 52 54 55 59 58 58 61 65 62 60 58 51 44 38 46 51 60 82 94 93 96
52 48 46 48 45 43 44 44 44 43 45 49 59 68 72 70 76 74 72 66 66 63 58 57 58 57 58 58 64 64 65 61 63 57 51 38 47 59 62 68 93 96 98
56 53 50 50 47 45 46 46 47 46 47 52 62 73 82 89 86 79 76 69 69 64 63 62 62 62 59 61 62 63 66 67 68 66 60 46 51 62 69 74 81 94 98
56 53 52 52 53 51 48 53 52 52 55 58 66 73 78 81 89 83 77 69 68 61 63 64 63 62 62 64 62 64 62 66 69 67 65 46 55 66 78 79 82 93 99

GFSSE_prec_cthk_132.txt.gz
RH
20 18 20 26 26 24 23 23 21 21 22 25 27 28 28 27 25 24 19 21 23 26 29 31 34 37 40 45 49 50 54 59 60 62 69 75 84 82 80 83 83 80 80
22 19 22 27 27 26 25 23 22 23 23 24 25 27 28 26 25 22 20 23 24 25 28 31 33 36 42 47 49 52 57 58 61 64 69 71 75 75 79 88 86 75 72
24 19 24 29 28 28 27 24 23 23 23 23 26 27 27 26 25 22 22 24 24 25 27 30 32 36 40 42 45 47 47 48 50 50 54 64 64 65 76 74 69 72 72
26 22 24 31 28 28 28 26 25 24 24 24 26 26 25 24 24 22 23 25 26 27 26 28 32 33 35 37 38 42 46 45 47 50 62 65 62 60 60 55 60 67 69
28 24 26 30 28 26 26 27 26 26 24 26 26 26 24 24 23 23 23 27 28 29 30 32 32 33 35 37 41 47 50 51 53 59 66 63 61 54 58 61 68 71 71
28 27 27 31 28 26 25 26 27 26 25 26 26 26 26 25 25 24 25 27 30 31 32 33 34 35 37 41 46 51 50 50 54 61 61 56 63 59 63 65 68 71 75
29 29 29 29 26 25 25 26 27 26 26 27 26 26 27 27 27 25 27 29 31 32 33 33 33 37 42 47 46 45 47 49 56 56 58 58 64 63 64 66 70 69 70
35 32 29 27 26 25 25 25 25 25 26 27 28 28 27 29 29 29 31 31 32 33 33 33 34 40 42 42 47 46 47 45 53 57 61 67 68 70 73 72 71 71 71
36 33 30 27 28 28 25 25 25 25 25 27 29 30 29 30 30 31 33 34 34 35 33 33 36 39 41 47 46 44 42 48 58 66 66 68 63 72 79 80 76 73 74
37 32 30 29 29 29 28 27 26 26 26 27 29 32 32 32 31 34 35 35 36 35 34 35 38 42 44 46 46 45 43 50 64 65 64 65 60 77 83 81 76 75 80
43 37 35 34 31 30 30 28 27 26 28 28 30 33 35 35 35 37 37 35 35 36 37 36 38 40 42 45 44 42 42 57 61 62 63 54 46 51 68 75 78 82 79
46 45 38 37 32 35 35 30 28 28 29 30 31 33 35 38 40 42 41 37 37 37 38 38 37 38 41 43 42 44 46 53 56 58 61 50 46 51 62 70 72 81 89
48 49 41 39 36 35 35 33 33 33 32 31 30 31 37 40 42 43 43 39 38 37 38 38 37 37 41 45 45 47 49 49 52 57 57 50 49 54 63 64 75 79 83
42 51 46 38 37 35 34 33 31 34 34 34 34 32 35 38 40 41 42 41 41 39 41 41 41 41 42 40 41 45 46 50 52 52 55 49 48 49 57 67 80 73 82
33 46 48 43 37 36 35 35 35 35 36 34 34 32 35 36 38 40 42 45 43 43 44 43 45 44 42 39 36 39 45 47 49 48 50 48 47 46 48 63 84 82 79
30 41 48 51 40 37 37 37 36 33 35 37 35 30 30 35 36 39 40 42 43 42 44 48 48 47 47 44 38 36 39 46 48 47 47 47 45 45 45 53 72 88 90
30 38 47 53 43 34 31 37 38 38 33 32 31 31 30 32 36 37 38 40 42 42 45 48 49 48 49 48 46 39 38 38 41 41 41 43 45 42 44 47 57 72 83
28 32 45 51 50 37 34 38 41 40 35 34 33 32 31 31 34 33 35 36 41 41 44 46 47 47 49 51 50 49 44 41 39 37 37 38 42 46 43 45 52 58 64
18 30 40 51 51 46 37 37 44 43 38 35 34 32 31 32 32 32 33 34 40 38 41 44 47 48 48 48 50 52 49 45 43 44 41 38 38 40 44 43 46 50 54
9 22 32 51 52 50 43 37 42 46 42 41 37 34 32 33 32 33 34 35 38 42 41 42 45 49 50 51 52 52 51 48 48 45 49 45 40 39 41 43 44 48 51
9 11 27 38 54 56 52 41 38 43 39 41 40 36 35 32 33 34 36 38 40 43 45 42 44 47 51 54 55 56 54 53 54 52 53 55 52 47 46 43 39 50 54
11 9 17 32 54 55 59 46 39 44 42 39 40 39 37 33 33 36 40 49 45 50 51 47 48 49 52 55 57 58 58 57 55 54 56 55 54 53 50 45 42 44 50
16 10 10 26 48 57 58 60 52 50 52 46 47 46 45 39 38 41 47 55 57 55 56 55 56 58 59 58 62 61 62 58 60 56 53 56 57 55 54 53 46 44 52
16 14 11 19 44 59 64 69 56 47 48 42 47 52 51 50 52 53 55 60 59 59 59 63 67 67 70 67 69 62 63 62 63 60 58 53 56 57 54 55 46 44 45
23 19 15 17 43 64 69 71 66 55 55 52 59 67 69 67 70 70 67 63 63 71 74 87 84 82 76 83 85 74 67 64 64 64 62 62 60 58 58 63 60 45 44
36 36 28 22 48 68 72 73 74 68 69 64 64 69 76 76 76 74 76 74 74 82 87 84 85 84 83 84 93 90 77 74 66 65 64 63 60 63 60 62 65 51 43